Weather History for KSBY - March, 2014

Change the Weather History Date:

Tuesday, March 4, 2014

  Actual Average Record
Temperature  
Mean Temperature 22 °F 41 °F  
Max Temperature 34 °F 51 °F 76 °F (1961)
Min Temperature 10 °F 31 °F 1 °F (2009)
Degree Days  
Heating Degree Days 43 24  
Month to date heating degree days 129 97  
Since 1 July heating degree days 3269 3402  
Cooling Degree Days 0 0  
Month to date cooling degree days 0 0  
Year to date cooling degree days 0 0  
Moisture  
Dew Point 14 °F    
Average Humidity 64    
Maximum Humidity 73    
Minimum Humidity 55    
Precipitation  
Precipitation T in 0.13 in 2.20 in (1993)
Month to date precipitation 0.15 0.53  
Year to date precipitation 4.13 7.49  
Snow  
Snow 0.00 in 0.00 in 3.00 in (1912)
Month to date snowfall 2.0 0.2  
Since 1 July snowfall 13.5 8.5  
Snow Depth 0.00 in    
Sea Level Pressure  
Sea Level Pressure 30.32 in    
Wind  
Wind Speed 6 mph (NNE)    
Max Wind Speed 14 mph    
Max Gust Speed 16 mph    
Visibility 10 miles    
Events      
T = Trace of Precipitation, MM = Missing Value Source: NWS Daily Summary

Daily Weather History Graph

Daily Weather History Graph

Search for Another Location

Airport or City:

Trip Planner

Search our weather history database for the weather conditions in past years. The results will help you decide how hot, cold, wet, or windy it might be!

Date:

Astronomy

Mar. 04, 2014 Rise Set
Actual Time 6:29 AM EST 5:58 PM EST
Civil Twilight 6:03 AM EST 6:24 PM EST
Nautical Twilight 5:32 AM EST 6:55 PM EST
Astronomical Twilight 5:02 AM EST 7:26 PM EST
Moon 8:17 AM EST (3/4) 9:59 PM EST (3/4)
Length of Visible Light 12h 21m
Length of Day
11h 28m
Waxing Crescent, 14% of the Moon is Illuminated
Mar 4
Waxing Crescent
Mar 8
First Quarter
Mar 16
Full
Mar 23
Last Quarter
Mar 30
New

Hourly Weather History & Observations

Time (EST) Temp. Windchill Dew Point Humidity Pressure Visibility Wind Dir Wind Speed Gust Speed Precip Events Conditions
12:54 AM 15.1 °F 9.4 °F 3.9 °F 61% 30.32 in 10.0 mi North 3.5 mph - N/A   Clear
1:54 AM 12.9 °F 3.8 °F 3.0 °F 65% 30.32 in 10.0 mi NNW 5.8 mph - N/A   Clear
2:54 AM 12.9 °F 1.6 °F 3.9 °F 67% 30.33 in 10.0 mi NNW 8.1 mph - N/A   Clear
3:54 AM 12.0 °F 2.7 °F 3.0 °F 67% 30.33 in 10.0 mi NNW 5.8 mph - N/A   Clear
4:54 AM 10.9 °F 1.4 °F 3.0 °F 70% 30.34 in 10.0 mi NNW 5.8 mph - N/A   Clear
5:54 AM 10.9 °F 1.4 °F 3.0 °F 70% 30.37 in 10.0 mi NNW 5.8 mph - N/A   Clear
6:54 AM 12.0 °F 4.1 °F 3.9 °F 70% 30.38 in 10.0 mi NNW 4.6 mph - N/A   Clear
7:54 AM 16.0 °F 6.3 °F 6.1 °F 65% 30.39 in 10.0 mi North 6.9 mph - N/A   Clear
8:54 AM 19.9 °F 8.6 °F 8.1 °F 60% 30.40 in 10.0 mi North 10.4 mph - N/A   Clear
9:54 AM 24.1 °F 15.2 °F 10.9 °F 57% 30.41 in 10.0 mi North 8.1 mph - N/A   Clear
10:54 AM 26.1 °F 17.6 °F 12.9 °F 58% 30.39 in 10.0 mi North 8.1 mph - N/A   Clear
11:54 AM 30.0 °F 23.2 °F 17.1 °F 59% 30.38 in 10.0 mi ENE 6.9 mph - N/A   Clear
12:54 PM 30.9 °F 22.8 °F 19.0 °F 61% 30.33 in 10.0 mi NNE 9.2 mph - N/A   Clear
1:54 PM 34.0 °F 26.6 °F 19.9 °F 56% 30.29 in 10.0 mi NE 9.2 mph - N/A   Clear
2:54 PM 33.1 °F 28.7 °F 19.0 °F 56% 30.29 in 10.0 mi NE 4.6 mph - N/A   Clear
3:54 PM 34.0 °F 28.8 °F 19.0 °F 54% 30.29 in 10.0 mi NNE 5.8 mph - N/A   Clear
4:54 PM 33.1 °F 26.1 °F 19.9 °F 59% 30.28 in 10.0 mi NE 8.1 mph - N/A   Clear
5:54 PM 32.0 °F 27.5 °F 19.9 °F 61% 30.28 in 10.0 mi NE 4.6 mph - N/A   Mostly Cloudy
6:54 PM 32.0 °F 26.4 °F 21.0 °F 64% 30.29 in 10.0 mi NNE 5.8 mph - N/A   Overcast
7:54 PM 30.9 °F 25.2 °F 21.0 °F 67% 30.30 in 10.0 mi North 5.8 mph - N/A   Overcast
8:54 PM 30.0 °F 24.1 °F 21.0 °F 69% 30.28 in 10.0 mi NE 5.8 mph - N/A   Overcast
9:54 PM 30.0 °F 25.2 °F 21.9 °F 72% 30.27 in 10.0 mi NE 4.6 mph - N/A   Overcast
10:54 PM 30.0 °F 24.1 °F 21.9 °F 72% 30.27 in 10.0 mi North 5.8 mph - 0.00 in   Overcast
11:54 PM 30.0 °F 24.1 °F 23.0 °F 75% 30.25 in 10.0 mi NNE 5.8 mph - 0.00 in   Overcast